This is the latest recevied weather packets stored in our database for station/object AI9F. If no packets are shown the sender has not sent any weather packets the latest 10 day(s).
| Time | Temp. | Humidity | Pressure | Rain* | Wind** | Luminosity | Snow |
|---|---|---|---|---|---|---|---|
| 1777708801 | 9.44° C | 76% | 1017.9 hPa | 0 mm | - | 0 W/m² | - |
| 1777708498 | 9.44° C | 81% | 1017.9 hPa | 0 mm | - | 0 W/m² | - |
| 1777708196 | 9.44° C | 78% | 1017.7 hPa | 0 mm | - | 0 W/m² | - |
| 1777707894 | 9.44° C | 77% | 1017.7 hPa | 0 mm | - | 0 W/m² | - |
| 1777707589 | 8.89° C | 80% | 1017.7 hPa | 0 mm | - | 0 W/m² | - |
| 1777707285 | 8.89° C | 78% | 1017.6 hPa | 0 mm | - | 0 W/m² | - |
| 1777706984 | 8.89° C | 79% | 1017.7 hPa | 0 mm | - | 0 W/m² | - |
| 1777706681 | 8.89° C | 78% | 1017.7 hPa | 0 mm | - | 0 W/m² | - |
| 1777706378 | 8.89° C | 77% | 1017.5 hPa | 0 mm | - | 0 W/m² | - |
| 1777706076 | 8.89° C | 77% | 1017.6 hPa | 0 mm | - | 0 W/m² | - |
| 1777705774 | 8.89° C | 76% | 1017.5 hPa | 0 mm | - | 0 W/m² | - |
| 1777705472 | 8.89° C | 78% | 1017.5 hPa | 0 mm | - | 0 W/m² | - |
| 1777705170 | 8.89° C | 79% | 1017.6 hPa | 0 mm | - | 0 W/m² | - |
| 1777704868 | 8.89° C | 80% | 1017.6 hPa | 0 mm | - | 0 W/m² | - |
| 1777704566 | 8.89° C | 78% | 1017.5 hPa | 0 mm | - | 0 W/m² | - |
| 1777704263 | 9.44° C | 79% | 1017.5 hPa | 0 mm | - | 0 W/m² | - |
| 1777703960 | 9.44° C | 76% | 1017.5 hPa | 0 mm | - | 0 W/m² | - |
| 1777703658 | 9.44° C | 76% | 1017.8 hPa | 0 mm | - | 0 W/m² | - |
| 1777703356 | 9.44° C | 76% | 1017.7 hPa | 0 mm | - | 0 W/m² | - |
| 1777703052 | 9.44° C | 77% | 1017.7 hPa | 0 mm | - | 0 W/m² | - |
| 1777702751 | 9.44° C | 77% | 1017.8 hPa | 0 mm | - | 0 W/m² | - |
| 1777702449 | 9.44° C | 75% | 1017.8 hPa | 0 mm | - | 0 W/m² | - |
| 1777702145 | 9.44° C | 76% | 1018.2 hPa | 0 mm | - | 0 W/m² | - |
| 1777701845 | 9.44° C | 76% | 1018 hPa | 0 mm | - | 0 W/m² | - |
| 1777701543 | 9.44° C | 77% | 1018.2 hPa | 0 mm | - | 0 W/m² | - |
* Rain latest hour (hover to see other rain measurements)
** Current wind speed in m/s (hover to see current wind gust speed)